Voltar ao catálogo

THORAD AGENA D DEB

AtivoLEO
NORAD 4468·DEBRIS·🇺🇸 United States

Lançado Sep 30, 1969 de Vandenberg Space Force Base

Loading…

Próximas Passagens (próximas 24 horas)

TLE

AtualizadoSource: Space-Track

Época: Sep 14, 2026, 08:37 UTC

1 04468U 69082FM  26257.35972022  .00000128  00000-0  15107-3 0  9997
2 04468  70.0718 280.2305 0082961 131.9304 228.8909 13.86139177868190

Acompanhe THORAD AGENA D DEB em tempo real com AllMySat

Download on the App Store